SL-16 DEB, 22618

Orbit data source: Space-Track

SL-16 DEB, 22618 is space debris in LEO originally from a launch on Fri, 26 Mar 1993 UTC launched from the Tyuratam Missile And Space Complex (TTMTR). Debris objects in space refer to the collection of defunct objects orbiting the Earth. Examples of debris include non-operational satellites, rocket bodies, and fragments generated from explosions, collisions, or faulty payload assembly.

Loading next visibility...
SL-16 DEB details
Identifier
22618, 1993-016AC
Orbit
LEO
Last TLE update16 hours ago
Origin
Flag of CISRVSN RF (CIS)
ManufacturerUnknown
MissionSpacecraft
Bus & MotorUnknown
MassUnknown
Launch date (UTC)
1993-03-26 (32 years ago)
Launch vehicleUnknown
Launch site
Tyuratam Missile And Space Complex (TTMTR)
Object type
Payload
Rocket body
Debris
Shape & HBRUnknown
Radar Cross SectionSmall (<0.1 m²)

Expand to show TLE details & history

TLE from 16 hours ago
0 SL-16 DEB
1 22618U 93016AC  25023.92305567  .00000447  00000-0  40779-3 0  9992
2 22618  70.9905 236.3997 0158001 314.0899  44.7290 13.83183290604058
Epoch: 2025-01-23T22:09Z
Definitive object data (Epoch: 2025-01-23T22:09:12.009Z)
Latitude-0.00001°
Longitude140.60604°
Altitude873.605 km
Speed7.457 km/s
True Right ascension15h 45m 35s
True Declination0° 00' 00"
Sunlit
Object was in daylight at TLE epoch
Visualization TLE readout
Latitude7.37299°
Longitude141.84763°
Altitude886.201 km
Speed7.444 km/s
Apparent Right ascension17h 18m 46s
Apparent Declination-50° 28' 56"
Sunlit
Object is in daylight
Visualization observer readout
Local Sidereal Time15:04:42
Azimuth159.345° S
Elevation-5.054°
Doppler factor1
Orbital elements
Apogee altitude1,066.368 km
Perigee altitude834.78 km
Semi-major axis7,328.711 km
Eccentricity0.0158001
Inclination70.9905°
RAAN236.3997°
Arg. of periapsis314.0899°
True anomaly46.0212°
Mean anomaly44.729°
Eccentric anomaly45.37329°
Mean motion3.45941 °/min
BSTAR0.00040779
Orbital period104.06 mins
Loading maneuver chart data...
Loading historical data...
Loading historical data...
Loading historical data...
Loading historical data...
Loading historical data...
Loading historical data...
Loading historical data...

SL-16 DEB Visibility forecast

Observer location: undefined°, undefined

Span
Click to sort rows by Start time (UTC) header in descending order
Start Az.
Max El. time (UTC)
Max El. Az.
Max El.
End time (UTC)
End Az.
6 mins2025-01-24 13:54:37.934Z125.816° SE2025-01-24 13:57:37.934Z93.551° ESE15.39°2025-01-24 14:00:37.934Z63.461° ENE
10 mins2025-01-24 15:38:37.934Z211.839° SW2025-01-24 15:42:37.934Z262.463° W43.325°2025-01-24 15:48:37.934Z18.815° NNE
4 mins2025-01-24 17:29:37.934Z304.075° NW2025-01-24 17:30:37.934Z314.388° NW13.447°2025-01-24 17:33:37.934Z343.345° N
4 mins2025-01-24 23:01:37.934Z30.795° NE2025-01-24 23:02:37.934Z40.234° NE13.355°2025-01-24 23:05:37.934Z67.781° E
11 mins2025-01-25 00:45:37.934Z345.064° N2025-01-25 00:50:37.934Z52.222° ENE42.291°2025-01-25 00:56:37.934Z144.792° SSE
8 mins2025-01-25 02:33:37.934Z295.464° NW2025-01-25 02:36:37.934Z263.367° W20.24°2025-01-25 02:41:37.934Z215.079° SW
|